Location: Cold Norton
(51.6667°N, 0.6667°E)
Time: 16:29:28
(UTC+00:00)

Spot 4 Rocket - Pass Details

Date: 18 November 2025
Orbit: 769 x 773 km, 98.8° (Epoch: 13 December)

Event Time Altitude Azimuth Distance (km) Brightness Sun altitude
Rises 18:30:17 0° 173° (S) 3,229 7.2 -22.4°
Reaches altitude 10° 18:32:37 10° 177° (S) 2,307 6.5 -22.8°
Maximum altitude 18:37:38 60° 258° (WSW) 880 4.5 -23.6°
Drops below altitude 10° 18:42:42 10° 338° (NNW) 2,325 6.7 -24.4°
Sets 18:45:03 0° 343° (NNW) 3,256 7.5 -24.7°
